This demonstration page uses our WeatherBlox Daily Observations layout. Learn more.

Left ArrowRight Arrow

39.51506, -84.39828

Hourly Observations for March 12, 2017

Temp ( °F °C ) Dew Point ( °F °C ) Humidity (%) Winds ( mph kmh ) Pressure ( in mb ) Visibility ( mi km ) Precip ( " mm )
12:15 am 00:15 Clear 29 -1.5 10 -12.4 44 44 NNW 6 9 30.45 1031 10 16 0.00 0.00
12:35 am 00:35 Clear 29 -1.5 11 -11.8 46 46 NNW 6 9 30.45 1031 10 16 0.00 0.00
12:55 am 00:55 Partly Cloudy 29 -1.5 11 -11.7 46 46 NNW 7 11 30.48 1032 10 16 0.00 0.00
1:15 am 01:15 Mostly Cloudy 29 -1.5 10 -12.2 44 44 NNW 3 6 30.48 1032 10 16 0.00 0.00
1:35 am 01:35 Cloudy 29 -1.5 10 -12.2 44 44 N 7 11 30.48 1032 10 16 0.00 0.00
1:55 am 01:55 Cloudy 29 -1.5 10 -12.4 44 44 NNW 9 15 30.48 1032 10 16 0.00 0.00
3:15 am 03:15 Mostly Cloudy 29 -1.5 10 -12.3 44 44 N 6 9 30.48 1032 10 16 0.00 0.00
3:35 am 03:35 Mostly Cloudy 29 -1.5 8 -13.1 41 41 NNW 8 13 30.48 1032 10 16 0.00 0.00
3:55 am 03:55 Cloudy 27 -2.8 8 -13.6 44 44 NNW 7 11 30.45 1031 10 16 0.00 0.00
4:15 am 04:15 Cloudy 27 -2.8 8 -13.1 45 45 NNW 3 6 30.45 1031 10 16 0.00 0.00
4:35 am 04:35 Cloudy 27 -2.8 9 -12.9 46 46 N 5 7 30.45 1031 10 16 0.00 0.00
4:55 am 04:55 Mostly Cloudy 26 -3.3 9 -12.9 48 48 N 5 7 30.45 1031 10 16 0.00 0.00
5:15 am 05:15 Partly Cloudy 24 -4.2 9 -13 51 51 N 6 9 30.48 1032 10 16 0.00 0.00
5:35 am 05:35 Clear 24 -4.2 9 -12.8 52 52 NNW 6 9 30.48 1032 10 16 0.00 0.00
5:55 am 05:55 Clear 24 -4.5 9 -12.7 53 53 NNW 6 9 30.48 1032 10 16 0.00 0.00
6:15 am 06:15 Clear 23 -5 9 -12.7 55 55 NNW 3 6 30.50 1033 10 16 0.00 0.00
6:35 am 06:35 Clear 23 -5.1 9 -12.7 56 56 NNW 3 6 30.50 1033 10 16 0.00 0.00
6:55 am 06:55 Partly Cloudy 23 -5.2 10 -12.5 57 57 NNW 3 6 30.50 1033 10 16 0.00 0.00
7:15 am 07:15 Partly Cloudy 22 -5.5 10 -12.5 58 58 NNW 5 7 30.50 1033 10 16 0.00 0.00
7:35 am 07:35 Clear 22 -5.6 10 -12.3 60 60 NNW 3 6 30.50 1033 10 16 0.00 0.00
7:55 am 07:55 Sunny 22 -5.6 10 -12.2 60 60 Calm 30.50 1033 10 16 0.00 0.00
8:15 am 08:15 Sunny 22 -5.6 10 -12 61 61 NNW 3 6 30.50 1033 10 16 0.00 0.00
8:35 am 08:35 Sunny 23 -5.2 11 -11.6 61 61 N 3 6 30.50 1033 10 16 0.00 0.00
8:55 am 08:55 Sunny 24 -4.2 12 -11.2 59 59 N 5 7 30.50 1033 10 16 0.00 0.00
9:15 am 09:15 Sunny 24 -4.2 10 -12 55 55 N 9 15 30.50 1033 10 16 0.00 0.00
9:35 am 09:35 Sunny 26 -3.2 11 -11.5 53 53 NNE 8 13 30.53 1034 10 16 0.00 0.00
9:55 am 09:55 Partly Cloudy 27 -2.8 11 -11.7 51 51 N 7 11 30.50 1033 10 16 0.00 0.00
10:15 am 10:15 Sunny 27 -2.8 10 -12 50 50 NNE 7 11 30.50 1033 10 16 0.00 0.00
10:35 am 10:35 Sunny 28 -2.1 11 -11.6 49 49 N 8 13 30.50 1033 10 16 0.00 0.00
10:55 am 10:55 Sunny 29 -1.5 11 -11.7 46 46 N 6 9 30.50 1033 10 16 0.00 0.00
11:15 am 11:15 Sunny 29 -1.5 10 -12.3 44 44 N 8 13 30.50 1033 10 16 0.00 0.00
11:35 am 11:35 Sunny 29 -1.5 8 -13.3 41 41 NNW 6 9 30.50 1033 10 16 0.00 0.00
11:55 am 11:55 Sunny 29 -1.5 8 -13.4 40 40 NNE 5 7 30.53 1034 10 16 0.00 0.00
12:15 pm 12:15 Sunny 32 -0.2 8 -13.3 37 37 ENE 5 7 30.53 1034 10 16 0.00 0.00
12:35 pm 12:35 Sunny 31 -0.8 6 -14.3 36 36 Calm 30.53 1034 10 16 0.00 0.00
12:55 pm 12:55 Sunny 32 0 8 -13.5 36 36 E 5 7 30.50 1033 10 16 0.00 0.00
1:15 pm 13:15 Sunny 33 0.5 7 -13.8 34 34 ENE 3 6 30.50 1033 10 16 0.00 0.00
1:35 pm 13:35 Sunny 34 1.2 6 -14.2 31 31 Calm 30.50 1033 10 16 0.00 0.00
1:55 pm 13:55 Sunny 34 1.2 5 -15 29 29 NNE 6 9 30.48 1032 10 16 0.00 0.00
2:15 pm 14:15 Sunny 34 1.2 3 -15.9 27 27 NNE 3 6 30.45 1031 10 16 0.00 0.00
2:35 pm 14:35 Sunny 34 1.2 4 -15.3 28 28 N 7 11 30.45 1031 10 16 0.00 0.00
2:55 pm 14:55 Sunny 34 1.2 3 -16.1 26 26 Calm 30.45 1031 10 16 0.00 0.00
3:15 pm 15:15 Sunny 36 2.3 4 -15.5 26 26 ENE 7 11 30.45 1031 10 16 0.00 0.00
3:35 pm 15:35 Sunny 37 2.5 5 -15.2 26 26 Calm 30.45 1031 10 16 0.00 0.00
3:55 pm 15:55 Sunny 36 2.3 3 -15.9 25 25 WNW 3 6 30.45 1031 10 16 0.00 0.00
4:15 pm 16:15 Sunny 37 2.6 1 -17.2 22 22 Calm 30.45 1031 10 16 0.00 0.00
4:35 pm 16:35 Sunny 37 2.6 -1 -18.1 20 20 Calm 30.45 1031 10 16 0.00 0.00
4:55 pm 16:55 Sunny 37 2.6 -1 -18.4 20 20 Calm 30.45 1031 10 16 0.00 0.00
5:15 pm 17:15 Sunny 37 2.6 -2 -18.8 19 19 Calm 30.45 1031 10 16 0.00 0.00
5:35 pm 17:35 Sunny 37 2.6 1 -17.5 21 21 NE 3 6 30.42 1030 10 16 0.00 0.00
5:55 pm 17:55 Sunny 37 2.6 0 -17.6 21 21 NE 5 7 30.42 1030 10 16 0.00 0.00
6:15 pm 18:15 Sunny 37 2.6 0 -18 20 20 NE 6 9 30.42 1030 10 16 0.00 0.00
6:35 pm 18:35 Sunny 37 2.6 0 -17.6 21 21 N 5 7 30.42 1030 10 16 0.00 0.00
6:55 pm 18:55 Sunny 37 2.6 1 -17.4 21 21 NE 3 6 30.42 1030 10 16 0.00 0.00
7:15 pm 19:15 Sunny 35 1.6 -1 -18.4 21 21 N 7 11 30.42 1030 10 16 0.00 0.00
7:35 pm 19:35 Sunny 34 1.2 1 -17.1 24 24 N 6 9 30.42 1030 10 16 0.00 0.00
7:55 pm 19:55 Clear 34 1.2 2 -16.4 26 26 NNE 6 9 30.42 1030 10 16 0.00 0.00
8:15 pm 20:15 Clear 34 1.2 4 -15.5 28 28 N 3 6 30.42 1030 10 16 0.00 0.00
8:35 pm 20:35 Clear 34 1.2 6 -14.7 30 30 N 3 6 30.39 1029 10 16 0.00 0.00
8:55 pm 20:55 Clear 32 0 6 -14.4 33 33 NNE 3 6 30.39 1029 10 16 0.00 0.00
9:15 pm 21:15 Clear 32 0 10 -12.2 40 40 NE 6 9 30.39 1029 10 16 0.00 0.00
9:35 pm 21:35 Clear 32 0 10 -12.5 39 39 NE 5 7 30.39 1029 10 16 0.00 0.00
9:55 pm 21:55 Clear 34 1.2 10 -12 37 37 NNE 5 7 30.39 1029 10 16 0.00 0.00
10:15 pm 22:15 Clear 34 1.2 10 -12.3 36 36 NE 8 13 30.39 1029 10 16 0.00 0.00
10:35 pm 22:35 Clear 34 1.2 8 -13.3 33 33 ENE 8 13 30.36 1028 10 16 0.00 0.00
10:55 pm 22:55 Clear 34 1.2 9 -12.8 35 35 ENE 8 13 30.36 1028 10 16 0.00 0.00
11:15 pm 23:15 Clear 34 1.2 9 -12.7 35 35 ENE 8 13 30.39 1029 10 16 0.00 0.00
11:35 pm 23:35 Clear 34 1 11 -11.8 38 38 ENE 8 13 30.39 1029 10 16 0.00 0.00
11:55 pm 23:55 Clear 32 0.1 9 -12.7 38 38 ENE 7 11 30.36 1028 10 16 0.00 0.00

Powered by AerisWeather